International Virtual Aviation Organisation

Russian Federation and Kazakhstan MCD

 

Карточка аэропорта UHPP

Внимание!
Информация на этой странице в стадии наполнения.
Если вы не увидели какой-то информации, или заметили неточность - пожалуйста сообщите нам!
Спасибо!
Команда RU-STAFF
Название аэропортаЕлизово
Название аэропорта (англ.)Yelizovo
Превышение131 ft. (39.9 m.)
Координаты53°10.002', 158°27.24'
Высота перехода2400m
Эшелон переходаQFE>756:FL90;756>QFE>729:FL100;729>QFE:FL110
Коды ответчика6630-6657
Зона ОрВДПетропавловск-Камчатский РПИ (UHPP)
Данные METARUHPP 241400Z 29004MPS 9999 NSC M04/M11 Q0999 R34L/CLRD70 NOSIG RMK QFE746/0995
Проноз погоды (TAF)UHPP 241341Z 2415/2521 32005G15MPS 9999 BKN030CB TEMPO 2415/2424 3100 -SHSN DRSN VV004
NOTAMshow/hide NOTAM
AWOS   TABLE

Информация о ВПП

ВПП Длина ВПП (м.) Покрытие Курс ВПП Частота ILS
34R3400Бетон344110.3
16L3400Бетон164 
34L2500Бетон344 
16R2500Бетон164 

Диспетчерские позиции

Позывной Наименование органа УВД Частота
UHPP_TWRПетропавловск - Старт118.100
UHPP_R_APPПетропавловск - Круг119.400



Спутниковое изображение